Regional Weather Roundup
Issued by NWS State College, PA

Home | Current Version | Previous Version | Graphics & Text | Print | Product List | Glossary Off
Versions: 1 2 3 4 5 6 7 8 9 10 11 12 13 14 15 16 17 18 19 20 21 22 23 24 25 26 27 28 29 30 31 32 33 34 35 36 37 38 39 40 41 42 43 44 45 46 47 48 49 50

533
ASUS41 KCTP 030510
RWRCTP

REGIONAL WEATHER ROUNDUP
NATIONAL WEATHER SERVICE STATE COLLEGE PA
100 AM EDT TUE MAY 03 2016

Note: "fair" indicates few or no clouds below 12,000 feet with no
significant weather and/or obstructions to visibility.

* = STATION THAT DOES NOT REPORT PRECIPITATION /E.G. RAIN...SNOW...ETC/
    THUNDER OR FOG.

PAZ002>004-007>009-013>016-020>023-029>032-030600-
WESTERN PENNSYLVANIA

CITY           SKY/WX    TMP DP  RH WIND       PRES   REMARKS
ERIE           CLOUDY    41  39  93 CALM      29.95S
MEADVILLE      CLOUDY    39  39 100 NE6       29.92F FOG
FRANKLIN*      CLOUDY    46  41  81 NE7       29.93F
NEW CASTLE     CLOUDY    47  43  86 CALM      29.93S
BEAVER COUNTY  NOT AVBL
BUTLER*        CLOUDY    48  45  87 NW5       29.93S
PITTSBURGH INT CLOUDY    51  44  77 NW8       29.90S
PITTSBURGH     CLOUDY    52  47  83 NW5       29.89S
INDIANA*       CLOUDY    55  52  88 CALM      29.91S
LATROBE        CLOUDY    55  55 100 CALM      29.89F
WASHINGTON CO* CLOUDY    52  46  82 NW3       29.91S
$$

PAZ004>006-010>012-017>019-024>028-033>037-041-042-045-046-049>053-030600-
CENTRAL PENNSYLVANIA

CITY           SKY/WX    TMP DP  RH WIND       PRES   REMARKS
BRADFORD       CLOUDY    44  43  96 E6        29.91F FOG
DUBOIS         CLOUDY    50  46  86 N6        29.88F
CLEARFIELD     CLOUDY    55  49  80 NE3       29.89F
JOHNSTOWN      CLOUDY    53  46  77 CALM      29.87F
ALTOONA        CLOUDY    57  54  89 CALM      29.88F
STATE COLLEGE  RAIN      51  50  97 NE7       29.91R
WILLIAMSPORT   LGT RAIN  51  48  89 CALM      29.92S
SELINSGROVE    CLOUDY    54  48  80 NE10      29.92R
FT INDIANTOWN  LGT RAIN  57  57 100 NE7       29.87F FOG
CAPITAL CITY   HVY RAIN  60  56  86 E7        29.86F FOG
HARRISBURG     LGT RAIN  60  57  89 SE5       29.86F FOG
YORK           LGT RAIN  60  58  92 E9        29.86F
$$

PAZ038>040-043-044-047-048-054-055-060>062-067>071-030600-
EASTERN PENNSYLVANIA

CITY           SKY/WX    TMP DP  RH WIND       PRES   REMARKS
SCRANTON       LGT RAIN  50  47  89 VRB3      29.93F
MOUNT POCONO   LGT RAIN  47  45  93 VRB3      29.92F FOG
ALLENTOWN      LGT RAIN  57  54  89 NE6       29.89F FOG
QUAKERTOWN*    CLOUDY    55  55 100 CALM      29.89F
READING        LGT RAIN  58  55  90 NE5       29.86F
LANCASTER      LGT RAIN  57  56  96 E7        29.86F FOG
COATESVILLE    CLOUDY    57  57 100 E9G20     29.90S FOG
POTTSTOWN      LGT RAIN  56  56 100 CALM      29.90F FOG
BLUE BELL      CLOUDY    54  54 100 E7        29.88F
DOYLESTOWN     LGT RAIN  54  54 100 CALM      29.88F FOG
WILLOW GROVE   NOT AVBL
NORTH PHILA    LGT RAIN  58  56  93 E8        29.90F FOG
PHILADELPHIA   LGT RAIN  59  55  87 E10       29.88F FOG
$$




USA.gov is the U.S. government's official web portal to all federal, state and local government web resources and services.